Regional Weather Roundup
Issued by NWS

Home | Current Version | Previous Version | Graphics & Text | Print | Product List | Glossary On
Versions: 1 2 3 4 5 6 7 8 9 10 11 12 13 14 15 16 17 18 19 20 21 22 23 24 25 26 27 28 29 30 31 32 33 34 35 36 37 38 39 40 41 42 43 44 45 46 47 48 49 50
000
ASUS43 KMKX 281000
RWRWI

WISCONSIN REGIONAL WEATHER ROUNDUP
NATIONAL WEATHER SERVICE MILWAUKEE/SULLIVAN WI
500 AM CDT THU JUL 28 2016

NOTE: "FAIR" INDICATES FEW OR NO CLOUDS BELOW 12,000 FEET WITH NO
SIGNIFICANT WEATHER AND/OR OBSTRUCTIONS TO VISIBILITY.

WIZ001-002-006>008-014>016-023>028-281100-
NORTHWEST WISCONSIN

CITY           SKY/WX    TMP DP  RH WIND       PRES   REMARKS
SUPERIOR ARPT  CLOUDY    61  57  87 NE3       30.04F
ASHLAND        CLOUDY    61  60  97 N8        30.05F
HAYWARD        CLOUDY    62  60  93 NE12      30.03S
SIREN          CLOUDY    61  61 100 NE7       30.02
CUMBERLAND     CLOUDY    63  61  94 NE8       30.00F
RICE LAKE      CLOUDY    65  63  93 N8        30.01S
CHETEK         CLOUDY    66  64  94 N6        29.99S
LADYSMITH      CLOUDY    65  64  96 NE6       30.01S
EAU CLAIRE     NOT AVBL
MENOMONIE      CLOUDY    66  65  99 N6        29.97S
NEW RICHMOND   CLOUDY    64  64  99 N7        29.99S
OSCEOLA        CLOUDY    64  64 100 N5        30.02S
$$

WIZ003>005-009-010-017-018-281100-
NORTH CENTRAL WISCONSIN

CITY           SKY/WX    TMP DP  RH WIND       PRES   REMARKS
MANITOWISH WTR CLOUDY    59  59 100 NE5       30.05R
ARBOR VITAE    CLOUDY    62  60  94 NE5       30.04S
WOODRUFF       CLOUDY    62  60  94 NE5       30.04S
RHINELANDER    CLOUDY    60  58  92 NE5       30.04S
EAGLE RIVER    CLOUDY    59  59  97 N5        30.04S
LAND O LAKES   CLOUDY    59  57  94 CALM      30.06S
PHILLIPS       LGT RAIN  63  63  99 NE9       30.01S
TOMAHAWK       CLOUDY    60  58  94 E7        30.02S
MEDFORD        HVY RAIN  62  62 100 NE3       29.99R
MERRILL        RAIN      61  61 100 E9        30.00S
$$

WIZ029-030-035-036-043>047-281100-
CENTRAL WISCONSIN

CITY           SKY/WX    TMP DP  RH WIND       PRES   REMARKS
WAUSAU         LGT RAIN  61  59  93 NE5       29.98R
MOSINEE        RAIN      63  63 100 NE13G18   29.98S
MARSHFIELD     LGT RAIN  66  63  90 E6        29.95R FOG
STEVENS POINT  LGT RAIN  63  63  99 NE8       29.97R
WAUPACA        CLOUDY    68  67  99 E6        29.96R
WAUTOMA        CLOUDY    67  66  97 NE7       29.94S
WISC RAPIDS    LGT RAIN  66  63  90 E12       29.95S
CAMP DOUGLAS   CLOUDY    68  68 100 E3        29.92S
$$

WIZ011>013-019>022-031-037>040-048>050-281100-
NORTHEAST WISCONSIN

CITY           SKY/WX    TMP DP  RH WIND       PRES   REMARKS
ANTIGO         RAIN      58  58  99 CALM      30.02R
SHAWANO        CLOUDY    63  60  92 NE10      29.99R
OCONTO         CLOUDY   N/A N/A N/A NE5       29.98R
STURGEON BAY   LGT RAIN  63  60  90 NE8       29.99R
GREEN BAY      LGT RAIN  64  64 100 NE9       29.97R
MANITOWOC      NOT AVBL
APPLETON       CLOUDY    64  64 100 E9        29.95R
CLINTONVILLE   CLOUDY    63  61  94 NE8       29.98R
OSHKOSH        CLOUDY    69  65  86 E12       29.94R
$$

WIZ032>034-041-042-053>061-281100-
SOUTHWEST WISCONSIN

CITY           SKY/WX    TMP DP  RH WIND       PRES   REMARKS
LA CROSSE      CLOUDY    69  66  90 N8        29.90S
SPARTA         CLOUDY    67  66  97 CALM      29.91F
VIROQUA        CLOUDY    66  66 100 CALM      29.92S
BOSCOBEL       FOG       69  67  93 CALM      29.90S VSB 1/4
PRAIRIE DU CHI CLOUDY    68  66  94 CALM      29.89S FOG
PLATTEVILLE    PTCLDY    66  66 100 N3        29.91S
$$

WIZ056-057-062-063-064-067-068-281100-
SOUTH CENTRAL WISCONSIN

CITY           SKY/WX    TMP DP  RH WIND       PRES   REMARKS
REEDSBURG      CLOUDY    68  68 100 E3        29.91F
BARABOO/DELLS  CLOUDY    67  65  94 E5        29.92S
LONE ROCK      NOT AVBL
MINERAL POINT  CLEAR     68  66  94 CALM      29.92S
MADISON        PTCLDY    68  66  93 CALM      29.91S
MIDDLETON      PTCLDY    69  69 100 NE5       29.92R
WATERTOWN      CLOUDY    68  68 100 E9        29.92R
MONROE         CLEAR     70  68  94 SW3       29.91S
JANESVILLE     CLEAR     68  68 100 CALM      29.89F FOG
$$

WIZ051-052-058>065-066-070>072-281100-
SOUTHEAST WISCONSIN

CITY           SKY/WX    TMP DP  RH WIND       PRES   REMARKS
MILWAUKEE      CLOUDY    68  65  90 N12       29.93R
WAUKESHA       LGT RAIN  64  64 100 CALM      29.95S
MILWAUKEE/TIMM CLOUDY    66  63  88 NE8       29.94F
RACINE         MOCLDY    69  66  90 N9        29.93S
BURLINGTON     CLOUDY    69  69  98 CALM      29.92S FOG
KENOSHA        PTCLDY    68  66  93 N3        29.91S
FOND DU LAC    CLOUDY    68  64  87 E6        29.95S
SHEBOYGAN      CLOUDY    65  62  90 NE13      29.94F
WEST BEND      CLOUDY    64  64 100 NE5       29.95S
JUNEAU         CLOUDY    66  63  89 E7        29.94F
$$

LSZ147-162-281100-
LAKE SUPERIOR

STATION/POSITION TIME  TEMP    WIND        PRES    WAVE
                       AIR SEA DIR/SP/G            HT/PER
                 (UTC) (F)     (DEG/KT/KT) (MB)    (FT/S)
W MID LAKE BUOY  0850   60 60  360/  8/  8 1017.0R   1
DEVILS ISLAND    0900   62      20/  9/ 11 1017.8R
PORT WING        0740   60      80/  1/  2 1017.6R
SAXON HARBOR     0940   65      70/  5/  6 1017.3R
$$

LMZ867-665-643>646-281100-
LAKE MICHIGAN

STATION/POSITION TIME  TEMP    WIND        PRES    WAVE
                       AIR SEA DIR/SP/G            HT/PER
                 (UTC) (F)     (DEG/KT/KT) (MB)    (FT/S)
CHAMBERS ISLAND  0900   67      20/ 17/ 20 1015.2S
N MID LAKE BUOY  0850   65 69   50/ 16/ 17 1014.5F   2/ 4
NORTHPORT PIER   0900   64      30/ 11/ 13 1015.6S
ALGOMA LAKESHORE 0913           30/ 11/ 17   N/A
KEWAUNEE LAKESHO 0900   62      20/  3/  9 1014.1R
SHEBOYGAN LAKESH 0900   61     350/ 12/ 13 1014.1F
PORT WASHINGTON  0940   68     360/  5/ 11 1014.2S
ATWATER BUOY     0900   64 65  320/  8/ 10 1015.1R
MILWAUKEE LAKESH 0910   67     350/  9/ 11   N/A
S MID LAKE BUOY  0850   74 75  320/  8/ 10 1012.4R   0
KENOSHA   LAKESH 0900   71      90/  8/  9 1012.2S
$$

TC  - TEMPERATURE IN CELSIUS
VSB - VISIBILITY IN STATUTE MILES
WCI - WIND CHILL INDEX
HX  - HEAT INDEX





USA.gov is the U.S. government's official web portal to all federal, state and local government web resources and services.